Skip Page Navigation
NASA JPL Caltech
NASA Logo - Jet Propulsion Laboratory + View the NASA Portal
+ Near-Earth Object (NEO) Program
Search JPL
JPL Home Earth Solar System Stars & Galaxies Technology
JPL Solar System Dynamics
BODIES ORBITS EPHEMERIDES TOOLS PHYSICAL DATA DISCOVERY FAQ SITE MAP
JPL Small-Body Database Browser
Search: [ help ]  
9701 Mak (1157 T-2)
Classification: Main-belt Asteroid          SPK-ID: 2009701
Ephemeris | Orbit Diagram | Orbital Elements | Physical Parameters | Discovery Circumstances ]

[ show orbit diagram ]
Orbital Elements at Epoch 2456400.5 (2013-Apr-18.0) TDB
Reference: MPO250306 (heliocentric ecliptic J2000)
 Element Value Uncertainty (1-sigma)   Units 
e 0.1315782 n/a  
a 2.3334534 n/a AU
q 2.0264218 n/a AU
i 2.60507 n/a deg
node 203.46896 n/a deg
peri 355.87052 n/a deg
M 192.75282 n/a deg
tp 2457005.3579757
(2014-Dec-13.85797570)
n/a JED
period 1301.9584022
3.56
n/a
n/a
d
yr
n 0.27650653 n/a deg/d
Q 2.6404850 n/a AU
  Orbit Determination Parameters
   # obs. used (total)      579  
   first obs. used      1973-??-??  
   last obs. used      2013-01-18  
   # oppositions      14  
   planetary ephem.      DE403  
   condition code      0  
   fit RMS      0.59  
   data source      MPC:mpn  
   producer      MPCLINUX  

Additional Information
 T_jup = 3.556 

Ephemeris | Orbit Diagram | Orbital Elements | Physical Parameters | Discovery Circumstances ]

Physical Parameter Table
Parameter Symbol Value Units Sigma Reference Notes
absolute magnitude H 15.3 mag n/a PDS3 (MPC 32914)  

9701 Mak           Discovered 1973 Sept. 29 by C. J. van Houten and I. van Houten-Groeneveld on Palomar Schmidt plates taken by T. Gehrels.
Arie Mak (b. 1914) is one of the best-known Dutch amateur astronomers, active in lunar occultations and solar observations. He developed scientific instrumentation for and joined in the eclipse expeditions of 1959 and 1966. He received the Van der Bilt Prize in 1951.
NOTE: some special characters may not display properly (any characters within {} are an attempt to place the proper accent above a character)
Reference: 20001111/MPCPages.arcLast Updated: 2013-03-29

Alternate Designations
 1157 T-2 = 1993 DU1 
Ephemeris | Orbit Diagram | Orbital Elements | Physical Parameters | Discovery Circumstances ]
ABOUT SSD CREDITS/AWARDS PRIVACY/COPYRIGHT GLOSSARY LINKS
FirstGov 2013-May-22 03:25 UT
(server date/time)  
NASA Home Page
Site Manager:   Donald K. Yeomans
Webmaster  Alan B. Chamberlin